EW1991 Weather Reports


time (UTC)temp
C
wind
direction
speed
KPH
gust
KPH
rain 1hr
cm
rain 24hr
cm
rain mn
cm
humidity
%
barometer
mb
20260504081534 7 340 3.2 12.9 0.00 0.00 0.00 73 1008.7
20260504050016 7 334 1.6 6.4 0.00 0.00 0.00 71 1009.3
20260504044513 7 349 1.6 4.8 0.00 0.00 0.00 69 1009.4
20260504043011 7 67 0.0 1.6 0.00 0.00 0.00 69 1009.6
20260504041509 8 129 0.0 1.6 0.00 0.00 0.00 65 1009.7
20260504040015 8 130 0.0 9.7 0.00 0.00 0.00 65 1009.7
20260504034505 7 330 0.0 3.2 0.00 0.00 0.00 59 1009.8
20260504033005 7 345 3.2 4.8 0.00 0.00 0.00 57 1009.6
20260504031504 7 51 1.6 3.2 0.00 0.00 0.00 58 1009.5
20260504030008 6 319 0.0 1.6 0.00 0.00 0.00 62 1009.5
20260504024504 6 319 0.0 3.2 0.00 0.00 0.00 57 1009.6
20260504023003 6 330 0.0 0.0 0.00 0.00 0.00 56 1009.5
20260504021502 6 330 0.0 3.2 0.00 0.00 0.00 56 1009.4
20260504020003 6 330 0.0 3.2 0.00 0.00 0.00 58 1009.4
20260504014502 6 331 0.0 4.8 0.00 0.00 0.00 55 1009.5
20260504013002 7 107 0.0 0.0 0.00 0.00 0.00 52 1009.5
20260504011600 8 107 0.0 0.0 0.00 0.00 0.00 52 1009.3
20260504010059 8 109 0.0 4.8 0.00 0.00 0.00 48 1009.2
20260504004559 9 158 1.6 4.8 0.00 0.00 0.00 43 1009.0
20260504003107 10 137 0.0 4.8 0.00 0.00 0.00 41 1008.9
20260504001607 10 48 4.8 12.9 0.00 0.00 0.00 37 1008.6
20260504000127 10 104 3.2 16.1 0.00 0.00 0.00 37 1008.5
20260503234557 11 118 4.8 19.3 0.00 0.00 0.00 35 1008.4
20260503233056 11 137 6.4 12.9 0.00 0.00 0.00 30 1008.0
20260503231556 12 100 3.2 17.7 0.00 0.00 0.00 30 1007.9
20260503224554 12 169 4.8 9.7 0.00 0.00 0.00 30 1007.4
20260503223052 12 170 6.4 16.1 0.00 0.00 0.00 32 1007.3
20260503221553 12 156 3.2 11.3 0.00 0.00 0.00 35 1007.3
20260503220048 12 192 4.8 11.3 0.00 0.00 0.00 37 1007.3
20260503214546 11 132 6.4 11.3 0.00 0.00 0.00 40 1007.3
20260503213046 11 146 4.8 9.7 0.00 0.00 0.00 38 1007.4
20260503211541 11 175 3.2 8.0 0.00 0.00 0.00 42 1007.5
20260503210040 11 162 9.7 16.1 0.00 0.00 0.00 41 1007.6
20260503204542 10 170 6.4 14.5 0.00 0.00 0.00 49 1007.8
20260503203037 11 109 6.4 14.5 0.00 0.00 0.00 38 1007.9
20260503201535 11 154 6.4 16.1 0.00 0.00 0.00 39 1008.0
20260503200032 11 133 3.2 14.5 0.00 0.00 0.00 40 1008.1
20260503194533 10 120 3.2 17.7 0.00 0.00 0.00 41 1008.3
20260503193039 10 129 8.0 19.3 0.00 0.00 0.00 39 1008.5
20260503191528 10 110 6.4 25.7 0.00 0.00 0.00 41 1008.6
20260503190025 10 139 8.0 14.5 0.00 0.00 0.00 40 1008.7
20260503184526 10 165 4.8 19.3 0.00 0.00 0.00 43 1008.9
20260503183019 10 123 4.8 14.5 0.00 0.00 0.00 42 1009.0
20260503181518 9 155 3.2 17.7 0.00 0.00 0.00 47 1009.2
20260503180019 9 158 4.8 16.1 0.00 0.00 0.00 44 1009.2
20260503174513 8 70 9.7 17.7 0.00 0.00 0.00 43 1009.2
20260503173020 8 138 1.6 17.7 0.00 0.00 0.00 45 1009.3
20260503171517 8 136 4.8 14.5 0.00 0.00 0.00 47 1009.5